Regional Weather Roundup
Issued by NWS Upton, NY

Current Version | Previous Version | Graphics & Text | Print | Product List | Glossary Off
Versions: 1 2 3 4 5 6 7 8 9 10 11 12 13 14 15 16 17 18 19 20 21 22 23 24 25 26 27 28 29 30 31 32 33 34 35 36 37 38 39 40 41 42 43 44 45 46 47 48 49
000 ASUS41 KOKX 030104 RWROKX REGIONAL WEATHER ROUNDUP NATIONAL WEATHER SERVICE NEW YORK NY 900 PM EDT WED SEP 02 2015 NOTE: "FAIR" INDICATES FEW OR NO CLOUDS BELOW 12,000 FEET WITH NO SIGNIFICANT WEATHER AND/OR OBSTRUCTIONS TO VISIBILITY. NYZ071-072-176-178-NJZ106-104-030200- NEW YORK CITY METRO AREA CITY SKY/WX TMP DP RH WIND PRES REMARKS CENTRAL PARK CLEAR 80 66 62 CALM 29.93R LAGUARDIA APRT PTCLDY 80 68 66 SE8 29.89S KENNEDY INTL PTCLDY 78 69 73 S12 29.91S NEWARK/LIBERTY PTCLDY 81 69 67 S3 29.89S BRNX BOT. GARD N/A 75 66 73 S6 29.91S TETERBORO CLEAR 81 66 60 S6 29.88S $$ NYZ177-179-078>081-030200- LONG ISLAND NEW YORK CITY SKY/WX TMP DP RH WIND PRES REMARKS FARMINGDALE CLEAR 77 65 66 SW7 29.91S ISLIP PTCLDY 76 65 68 SW8 29.90S SHIRLEY CLEAR 75 68 78 S3 29.92S WESTHAMPTON CLEAR 74 71 91 SW7 29.93S MONTAUK POINT N/A 74 69 85 SW5 29.93R $$ NYZ052-065-067-030200- HUDSON VALLEY CITY SKY/WX TMP DP RH WIND PRES REMARKS WHITE PLAINS CLEAR 73 62 68 CALM 29.91S NEWBURGH PTCLDY 77 68 73 NW6 29.91S MONTGOMERY CLEAR 78 65 63 CALM 29.90R POUGHKEEPSIE PTCLDY 75 67 76 E3 29.88R ALBANY PTCLDY 76 65 68 CALM 29.90R $$ NJZ001-105-106-008-010-013-015-019>022-104-030200- NEW JERSEY CITY SKY/WX TMP DP RH WIND PRES REMARKS NEWARK/LIBERTY PTCLDY 81 69 67 S3 29.89S TETERBORO CLEAR 81 66 60 S6 29.88S CALDWELL CLEAR 79 67 66 CALM 29.90R MORRISTOWN NOT AVBL SOMERVILLE CLEAR 76 67 73 NW3 29.88R SUSSEX CLEAR 72 67 84 CALM 29.92 ANDOVER N/A 71 69 93 CALM 29.93R TRENTON PTCLDY 80 70 71 S6 29.89S MILLVILLE CLEAR 75 72 90 CALM 29.92R ATLANTIC CITY CLEAR 77 73 87 S5 29.92R WRIGHTSTOWN CLEAR 76 72 87 S5 29.88R TOMS RIVER CLEAR 75 72 88 CALM 29.91S BELMAR CLEAR 75 66 73 CALM 29.91R $$ PAZ047>061-062-071-030200- EASTERN PENNSYLVANIA CITY SKY/WX TMP DP RH WIND PRES REMARKS PHILADELPHIA PTCLDY 85 63 47 SW5 29.90S ALLENTOWN CLEAR 78 65 63 NW3 29.91S SCRANTON CLEAR 76 64 66 E7 29.95S $$ CTZ002-004>006-009-010-012-RIZ004-006-007-MAZ004-011-015-030200- SOUTHERN NEW ENGLAND IN CT CITY SKY/WX TMP DP RH WIND PRES REMARKS BRADLEY INTL CLEAR 75 67 76 W3 29.88S HARTFORD CLEAR 78 67 68 S7 29.88S DANBURY PTCLDY 77 62 59 CALM 29.93R WTRBRY/OXFORD CLEAR 73 63 68 VRB5 29.94S BRIDGEPORT CLEAR 79 67 66 SW9 29.90S MERIDEN CLEAR 76 63 64 CALM 29.90R NEW HAVEN CLEAR 77 65 66 S6 29.91S CHESTER NOT AVBL GROTON CLEAR 73 69 87 SW7 29.90S WILLIMANTIC CLEAR 77 65 66 SW3 29.90S IN RI CITY SKY/WX TMP DP RH WIND PRES REMARKS PROVIDENCE PTCLDY 76 63 64 W10 29.90R BLOCK ISLAND CLEAR 72 70 94 SW13 29.92S WESTERLY CLEAR 74 66 76 SW5 29.92S IN MA CITY SKY/WX TMP DP RH WIND PRES REMARKS BOSTON CLEAR 77 68 73 S8 29.87R WORCESTER CLEAR 75 62 64 W9 29.93R WESTFIELD CLEAR 73 67 81 CALM 29.89S PROVINCETOWN N/A 72 63 73 SW9 29.90R NANTUCKET CLEAR 69 68 96 SW7 29.92R $$ ANZ330-335-338-340-345-350-353-355-030200- COASTAL MARINE OBSERVATIONS STATION/POSITION TIME SKY/WX TEMP WIND PRES VSBY WAVE AIR SEA DIR/SP/G HT/PER (UTC) (F) (DEG/KT/KT) (MB) (MI) (FT/S) NY HARB ENTRANCE 2350 78 77 190/ 14/ 16 1012.1 2/ 4 4S FIRE IS NOT AVBL 20S FIRE ISLAND 2350 76 75 200/ 10/ 12 1012.7 2/ 8 GREAT SOUTH BAY 0000 77 80 230/ 10/ 12 N/A 23SW MTP 0050 74 73 220/ 8/ 10 1012.6 2/ 8 HUDSON CANYON NOT AVBL KINGS POINT 0000 78 76 190/ 9/ 12 1011.8 EXECUTION ROCKS 0000 78 190/ 10/ 14 N/A CENTRAL LI SOUND NOT AVBL EASTERN LI SOUND 0000 74 71 250/ 6/ 8 N/A ROBBINS REEF 0000 79 150/ 7/ 8 1011.1 $$ >>>>>>>>>>>>>>>>>>>>>>>>>>>> KEY <<<<<<<<<<<<<<<<<<<<<<<<<<< > < > SKY/WX - SKY CONDITION/PRESENT WEATHER < > TMP - TEMPERATURE IN FAHRENHEIT < > DP - DEWPOINT IN FAHRENHEIT < > RH - RELATIVE HUMIDITY IN PERCENT < > WIND - DIRECTION AND SPEED IN MPH < > PRES - MEAN SEA LEVEL PRESSURE IN INCHES OF HG < > WCI - WIND CHILL INDEX < > VSB - VISIBILITY IN MILES < > HX - HEAT INDEX < > TC - TEMPERATURE IN CELSIUS < > VRB - VARIABLE WIND DIRECTION < > < >>>>>>>>>>>>>>>>>>>>>>>>>>>> KEY <<<<<<<<<<<<<<<<<<<<<<<<<<<

USA.gov is the U.S. government's official web portal to all federal, state and local government web resources and services.